AirNav   Everest Fuels
 
 1091 users online  

KCGS College Park Airport
College Park, Maryland, USA

GOING TO COLLEGE PARK?


FAA INFORMATION EFFECTIVE 25 FEBRUARY 2021

Location

FAA Identifier: CGS
Lat/Long: 38-58-50.1000N 076-55-20.3000W
38-58.835000N 076-55.338333W
38.9805833,-76.9223056
(estimated)
Elevation: 48.4 ft. / 14.8 m (surveyed)
Variation: 11W (2000)
From city: 1 mile E of COLLEGE PARK, MD
Time zone: UTC -5 (UTC -4 during Daylight Saving Time)
Zip code: 20740

Airport Operations

Airport use: Open to the public
Activation date: 04/1940
Control tower: no
ARTCC: WASHINGTON CENTER
FSS: LEESBURG FLIGHT SERVICE STATION
NOTAMs facility: CGS (NOTAM-D service available)
Attendance: 0700-2200,
Wind indicator: lighted
Segmented circle: yes
Lights: ACTVT MIRL RWY 15/33 - CTAF.
Beacon: white-green (lighted land airport)
Operates sunset to sunrise.

Airport Communications

CTAF/UNICOM: 122.975
WX AWOS-3: 121.225 (301-864-5497)
POTOMAC APPROACH: 125.65 ;DC FRZ 124.7
POTOMAC DEPARTURE: 125.65 ;DC FRZ 124.7
IRONS STAR: 126.4
WX ASOS at DCA (9 nm SW): 132.65 (703-418-1177)
WX AWOS-3 at FME (10 nm NE): 123.925
WX AWOS-3PT at GAI (16 nm NW): 128.275 (301-977-2971)
WX ASOS at BWI (17 nm NE): PHONE 410-691-1278

Nearby radio navigation aids

VOR radial/distance  VOR name  Freq  Var
DCAr045/9.0WASHINGTON VOR/DME111.0009W
ADWr356/10.7ANDREWS VORTAC113.1010W
BALr238/16.7BALTIMORE VORTAC115.1011W
OTTr343/18.5NOTTINGHAM VORTAC113.7010W
AMLr092/25.5ARMEL VOR/DME113.5008W
EMIr183/31.0WESTMINSTER VORTAC117.9008W
FDKr149/(33.4)FREDERICK VOR109.0008W

 
NDB name  Hdg/Dist  Freq  Var  ID
GEORGETOWN081/9.932309WGTN --. - -.
OXONN032/13.833211WDCA -.. -.-. .-
ELLICOTT211/19.637111WFND ..-. -. -..
DAVEE034/21.122309WDAA -.. .- .-

Airport Services

Fuel available: 100LL JET-A1+
Parking: tiedowns
Airframe service: NONE
Powerplant service: NONE
Bottled oxygen: NONE
Bulk oxygen: NONE

Runway Information

Runway 15/33

Dimensions: 2607 x 60 ft. / 795 x 18 m
Surface: asphalt, in excellent condition
Runway edge lights: medium intensity
RUNWAY 15  RUNWAY 33
Latitude: 38-58.995650N38-58.674748N
Longitude: 076-55.520488W076-55.154692W
Elevation: 48.4 ft.39.1 ft.
Traffic pattern: leftleft
Runway heading: 149 magnetic, 138 true329 magnetic, 318 true
Displaced threshold: 416 ft.201 ft.
Markings: nonprecision, in good conditionnonprecision, in good condition
Runway end identifier lights: nono
Touchdown point: yes, no lightsyes, no lights
Obstructions: 49 ft. trees, 346 ft. from runway, 2:1 slope to clear
+33' RAILROAD, 117 FM THD WITH OBS LTS
69 ft. trees, 1199 ft. from runway, 14:1 slope to clear
+15 FT FENCE 87 FT R AT THR; -6 FT DITCH 65 FT L AT THR.

Airport Ownership and Management from official FAA records

Ownership: Publicly-owned
Owner: MNCPPC
6611 KENILWORTH AVENUE
RIVERDALE, MD 20737
Phone 301-699-2255
THE MARYLAND NATIONAL CAPITAL PARK & PLANNING CMSN.
Manager: LEE SOMMER
1909 CORPORAL FRANK SCOTT DRIVE
COLLEGE PARK, MD 20740
Phone 301-864-5844

Airport Operational Statistics

Aircraft based on the field: 31
Single engine airplanes: 26
Helicopters: 4
Gliders airplanes: 1
    
Aircraft operations: avg 62/week *
70% local general aviation
26% transient general aviation
2% air taxi
2% military
* for 12-month period ending 02 September 2020

Additional Remarks

NO TKOFS 2200-0700; LNDG ONLY.
TSNT PRKG: FIRST 4 HRS FREE; FEE AFT, WAIVED W/MIN FUEL PURCHASE; OVNGT FEE.
HEL RAMP FEE; WAIVED IF UNDER 3500 LBS OR MIN FUEL PURCHASE.
ACFT HANDLING FEE IF RELOCATION TO/FROM FUEL AREA RQRD BY ARPT PSNL.
BLDG 0.1 NM S OF ARPT 23 FT AGL LGTD.
NO ACFT OVR 12500 LBS MFR GWT; HELS ONLY WITH 24 HR PPR - CALL AMGR 301-864-5844.
NOISE ABATEMENT PROCEDURES IN EFFECT CTC AMGR 301-864-5844.
AER 15 HEAVY SMOKE & FIREFIGHTING TRAINING OPNS INTERMITTENTLY IN PROGRESS.
NO STUDENT TGL OR SOLO OPNS PERMITTED.
DEER AND OTHER WILDLIFE ON & INVOF ARPT.
COMPLIANCE WITH 14CFR SECTION 93.335 IS REQUIRED BEFORE PILOTS MAY OPERATE TO/FROM THIS AIRPORT.
FOR CD CTC POTOMAC APCH AT 866-599-3874.

Instrument Procedures

NOTE: All procedures below are presented as PDF files. If you need a reader for these files, you should download the free Adobe Reader.

NOT FOR NAVIGATION. Please procure official charts for flight.
FAA instrument procedures published for use from 25 February 2021 at 0901Z to 25 March 2021 at 0900Z.

 
IAPs - Instrument Approach Procedures
RNAV (GPS)-A   download (164KB)
RNAV (GPS)-B   download (160KB)
NOTE: Special Take-Off Minimums/Departure Procedures apply **CHANGED**   download (366KB)

Other nearby airports with instrument procedures:

W00 - Freeway Airport (7 nm E)
KDCA - Ronald Reagan Washington NTL Airport (9 nm SW)
KFME - Tipton Airport (10 nm NE)
KADW - Joint Base Andrews (11 nm S)
W32 - Washington Executive Airport/Hyde Field (14 nm S)
KVKX - Potomac Airfield (14 nm S)
KGAI - Montgomery County Airpark (16 nm NW)
KBWI - Baltimore/Washington International Thurgood Marshall Airport (17 nm NE)
KANP - Lee Airport (17 nm E)
W50 - Davis Airport (19 nm NW)
 
Loc | Ops | Rwys | IFR | FBO | Links
Com | Nav | Svcs | Stats | Notes
Area around KCGS (College Park Airport)
 
Road maps at: MapQuest Bing Google
 
Aerial photo
WARNING: Photo may not be current or correct
Aerial photo of KCGS (College Park Airport)
Photo taken 19-Oct-2016
looking north.

Do you have a better or more recent aerial photo of College Park Airport that you would like to share? If so, please send us your photo.

 
Sectional chart

 
Airport distance calculator
Flying to College Park Airport? Find the distance to fly.

From to KCGS

Sunrise and sunset
Times for 28-Feb-2021
 Local
(UTC-5)
 Zulu
(UTC)
Morning civil twilight06:1611:16
Sunrise06:4311:43
Sunset17:5822:58
Evening civil twilight18:2523:25

Current date and time
Zulu (UTC)  28-Feb-2021 19:26:09
Local (UTC-5)  28-Feb-2021 14:26:09
 
METAR
KCGS 281915Z AUTO 00000KT 2 1/2SM BKN008 OVC012 07/05 A3009 RMK AO1 VIS 2V4 T00650050
KDCA 
9nm SW 
281852Z 11007KT 7SM -RA OVC009 08/06 A3009 RMK AO2 SLP190 P0004 T00780061 $
KFME 
10nm NE 
281915Z AUTO 00000KT 2 1/2SM OVC004 06/05 A3012 RMK AO1
KADW 
10nm S 
281911Z AUTO 10006KT 5SM -RA BR OVC005 07/07 A3006 RMK AO2 CIG 003 RWY19L PRESFR SLP188 $
KBWI 
16nm NE 
281854Z 09014G22KT 2SM -RA BR OVC005 06/05 A3008 RMK AO2 PRESFR SLP186 P0011 T00610050
KGAI 
16nm NW 
281856Z AUTO 10004KT 5SM -RA BR OVC006 06/06 A3010 RMK AO2 CIG 005V010 SLP209 P0025 T00610056
KDAA 
20nm SW 
281856Z AUTO 00000KT 5SM -RA BR OVC005 07/06 A3008 RMK AO2 SLP189 P0003 T00740063 $
TAF
KDCA 
9nm SW 
281140Z 2812/0118 00000KT 6SM -RA FEW070 OVC090 FM281300 10006KT 5SM -RA BR OVC025 FM281600 11006KT 2SM RA BR OVC008 FM010900 28006KT 2SM -RA BR OVC008 FM011200 29006KT 3SM -RA BR OVC020 FM011600 29011G18KT P6SM OVC045
KADW 
10nm S 
280900Z 2809/0115 15005KT 9999 -RA SCT020 BKN050 QNH3023INS BECMG 2813/2814 12005KT 8000 -RA BR BKN008 OVC020 QNH3017INS BECMG 2816/2817 10005KT 6000 -RA BR OVC005 QNH2999INS BECMG 2820/2821 VRB05KT 6000 -RA BR OVC002 QNH2980INS BECMG 0105/0106 23005KT 6000 -RA BR BKN005 OVC080 WS020/25040KT QNH2971INS BECMG 0112/0113 26008KT 9999 NSW SCT005 OVC060 QNH2968INS TX14/0109Z TN06/2811Z
KBWI 
16nm NE 
281140Z 2812/0118 00000KT 6SM -RA BR BKN090 OVC130 FM281400 10006KT 5SM -RA BR OVC030 FM281700 10006KT 2SM RA BR OVC008 FM010900 27006KT 2SM -RA BR OVC008 FM011200 29006KT 3SM -RA BR OVC025 FM011600 29010G17KT P6SM BKN060
NOTAMs
Click for the latest NOTAMs
NOTAMs are issued by the DoD/FAA and will open in a separate window not controlled by AirNav.

 

 
 

FBO, Fuel Providers, and Aircraft Ground Support

  
 Business Name 
 
 Contact 
 
 Services / Description 
 
Fuel Prices
 
Comments
  
College Park Airport 301-864-5844
no information available

If you are affiliated with College Park Airport and would like to show here your services, contact info, web link, logo, and more, click here
100LL Jet A
FS --- $3.85 
PS $5.00 --- 
 Updated 23-Feb-2021
 
   1 read write
FS=Full service
PS=Pump service
Update Fuel Prices
 

Getting Around: Taxi, Limo, Rental Cars, Mass Transit

  
 Business Name 
 
 Contact 
 
Services / Description
 
Comments
  
Metrorail [web site]
no information available

If you are affiliated with Metrorail and would like to show here your services, contact info, web link, logo, and more, click here
 
   1 read write
 

Things to do: Attractions on or near the airport

  
 Business Name 
 
 Contact 
 
 Services / Description 
 
Distance
 
Comments
  
College Park Aviation Museum 301-864-6029
no information available

If you are affiliated with College Park Aviation Museum and would like to show here your services, contact info, web link, logo, and more, click here
on airport  
   write
 

Would you like to see your business listed on this page?

 If your business provides an interesting product or service to pilots, flight crews, aircraft, or users of the College Park Airport, you should consider listing it here.  To start the listing process, click on the button below
 
Add a business
 

Other Pages about College Park Airport

www.collegeparkairport.org
www.pgparks.com/...
 
Update a link
 
Copyright © AirNav, LLC. All rights reserved. Privacy Policy  Contact